Location: Zapote
(9.9191°N, 84.0597°W)
Time: 16:24:09
(UTC-06:00)

Courier 1B Rocket - Pass Details

Date: 09 March 2021
Orbit: 920 x 1202 km, 28.2° (Epoch: 11 April)

Event Time Altitude Azimuth Distance (km) Brightness Sun altitude
Rises 20:58:29 0° 272° (W) 4,081 8.9 -47.9°
Reaches altitude 10° 21:02:07 10° 257° (WSW) 3,127 8.1 -48.8°
Enters shadow 21:04:39 17° 240° (WSW) 2,626 7.5 -49.4°
